[Date Prev][Date Next][Thread Prev][Thread Next] - [Date Index][Thread Index][Author Index]
2 Line ISS Keps 10-2
- Subject: [sarex] 2 Line ISS Keps 10-2
- From: "Dave Larsen PhD" <doc@xxxxxxxxxxx>
- Date: Wed, 2 Oct 2002 02:06:50 -0700
ISS
1 25544U 98067A 02274.75542248 .00047598 00000-0 56293-3 0 2086
2 25544 51.6356 237.8946 0017220 323.2551 108.7007 15.60619541220656
----
Via the sarex mailing list at AMSAT.ORG courtesy of AMSAT-NA.
To unsubscribe, send "unsubscribe sarex" to Majordomo@amsat.org
AMSAT Home